Location: M?digepalle
(16.1753°N, 80.3496°E)
Time: 08:29:08
(UTC+00:00)

GPS 2-17 Rocket1 - Pass Details

Date: 29 October 2020
Orbit: 571 x 659 km, 20.3° (Epoch: 28 November)

Event Time Altitude Azimuth Distance (km) Brightness Sun altitude
Exits shadow 23:24:35 33° 259° (W) 1,001 3.6 -17.4°
Maximum altitude 23:26:19 56° 197° (SSW) 709 3.3 -17.0°
Drops below altitude 10° 23:30:49 10° 119° (ESE) 1,958 6.8 -15.9°
Sets 23:33:14 0° 115° (ESE) 2,879 8.1 -15.4°
